TimeMST,TemperatureF,Dew PointF,Humidity,Sea Level PressureIn,VisibilityMPH,Wind Direction,Wind SpeedMPH,Gust SpeedMPH,PrecipitationIn,Events,Conditions,WindDirDegrees,DateUTC
12:55 AM,36.5,28.6,73,30.01,10.0,West,3.5,-,N/A,,Clear,260,2012-11-30 07:55:00
1:55 AM,36.3,28.0,72,30.00,10.0,Calm,Calm,-,N/A,,Clear,0,2012-11-30 08:55:00
2:55 AM,29.3,25.2,85,30.00,10.0,ESE,3.5,-,N/A,,Clear,110,2012-11-30 09:55:00
3:55 AM,30.7,25.5,81,29.97,10.0,South,5.8,-,N/A,,Clear,170,2012-11-30 10:55:00
4:55 AM,31.6,26.8,82,29.96,10.0,South,8.1,-,N/A,,Clear,170,2012-11-30 11:55:00
5:55 AM,33.3,27.9,81,29.96,10.0,SSE,9.2,-,N/A,,Clear,160,2012-11-30 12:55:00
6:55 AM,32.5,26.8,79,29.96,10.0,Calm,Calm,-,N/A,,Clear,0,2012-11-30 13:55:00
7:55 AM,34.7,27.3,74,29.94,10.0,SSW,6.9,-,N/A,,Clear,200,2012-11-30 14:55:00
8:55 AM,38.8,29.1,68,29.91,10.0,Calm,Calm,-,N/A,,Clear,0,2012-11-30 15:55:00
9:55 AM,42.8,30.6,62,29.88,10.0,SSE,4.6,-,N/A,,Clear,160,2012-11-30 16:55:00
10:55 AM,53.8,33.6,46,29.83,10.0,South,12.7,-,N/A,,Partly Cloudy,190,2012-11-30 17:55:00
11:55 AM,58.3,32.5,38,29.78,10.0,South,15.0,-,N/A,,Clear,180,2012-11-30 18:55:00
12:55 PM,62.6,29.3,28,29.75,10.0,SW,11.5,-,N/A,,Clear,220,2012-11-30 19:55:00
1:55 PM,60.8,30.2,31,29.74,10.0,SSW,9.2,-,N/A,,Clear,210,2012-11-30 20:55:00
2:55 PM,56.5,34.0,43,29.75,10.0,South,12.7,-,N/A,,Scattered Clouds,180,2012-11-30 21:55:00
3:55 PM,53.1,34.9,50,29.72,10.0,South,16.1,-,N/A,,Clear,170,2012-11-30 22:55:00
4:55 PM,50.7,34.3,53,29.71,10.0,SSE,13.8,-,N/A,,Scattered Clouds,150,2012-11-30 23:55:00
5:55 PM,50.5,33.6,52,29.70,10.0,South,8.1,-,N/A,,Overcast,170,2012-12-01 00:55:00
6:55 PM,53.4,32.9,46,29.71,10.0,SW,6.9,-,N/A,,Clear,220,2012-12-01 01:55:00
7:55 PM,49.3,33.3,54,29.69,10.0,SE,9.2,-,N/A,,Clear,140,2012-12-01 02:55:00
8:45 PM,53.6,28.4,38,29.65,10.0,WSW,24.2,31.1,N/A,,Clear,250,2012-12-01 03:45:00
8:55 PM,57.9,30.7,36,29.64,10.0,West,21.9,32.2,N/A,,Clear,260,2012-12-01 03:55:00
9:55 PM,56.8,31.1,38,29.64,10.0,West,18.4,-,N/A,,Partly Cloudy,270,2012-12-01 04:55:00
10:55 PM,56.5,31.3,38,29.65,10.0,West,17.3,-,N/A,,Mostly Cloudy,280,2012-12-01 05:55:00
11:55 PM,54.9,31.3,41,29.65,10.0,West,12.7,-,N/A,,Partly Cloudy,280,2012-12-01 06:55:00